Regional Weather Roundup
Issued by NWS Cleveland, OH

Home | Current Version | Previous Version | Text Only | Print | Product List | Glossary Off
Versions: 1 2 3 4 5 6 7 8 9 10 11 12 13 14 15 16 17 18 19 20 21 22 23 24 25 26 27 28 29 30 31 32 33 34 35 36 37 38 39 40 41 42 43 44 45 46 47 48 49 50

000
ASUS41 KCLE 230000
RWRCLE
OHIO REGIONAL WEATHER ROUNDUP
NATIONAL WEATHER SERVICE WILMINGTON, OH
800 PM EDT THU JUN 22 2017

NOTE: "FAIR" INDICATES FEW OR NO CLOUDS BELOW 12,000 FEET WITH NO
SIGNIFICANT WEATHER AND/OR OBSTRUCTIONS TO VISIBILITY.

OHZ001>008-015>018-024>027-034-035-043-044-230100-
   NORTHWEST OHIO

CITY           SKY/WX    TMP DP  RH WIND       PRES   REMARKS
DEFIANCE       FAIR      81  66  60 S20G33    29.81S
FINDLAY        FAIR      84  65  52 SW24G32   29.83F
TOLEDO EXPRESS CLOUDY    80  72  76 SW8       29.80S
TOLEDO EXEC    PTSUNNY   83  71  67 SW10      29.82R
LIMA           FAIR      80  68  66 S13G20    29.86F
$$

OHZ009>014-019>023-028>033-038-089-230100-
   NORTHEAST OHIO

CITY           SKY/WX    TMP DP  RH WIND       PRES   REMARKS
CLE-HOPKINS    MOCLDY    86  67  52 S12       29.86S
CLE-LAKEFRONT  FAIR      85  64  49 S16G26    29.83S
CUY CO. ARPT   MOCLDY    86  66  51 SW12      29.86S
LORAIN-ELYRIA  FAIR      83  64  52 SW17G23   29.85F
ASHTABULA      FAIR      80  69  69 S9        29.87F
AKRON-CANTON   MOCLDY    81  67  62 S12       29.91F
WOOSTER        NOT AVBL
MANSFIELD      PTSUNNY   80  69  69 S13       29.90S
YOUNGSTOWN     MOCLDY    81  66  60 S10G21    29.91S
$$

OHZ042-051>053-060>062-070>072-077>081-230100-
  SOUTHWEST OHIO

CITY           SKY/WX    TMP DP  RH WIND       PRES   REMARKS
CINC-COVINGTON LGT RAIN  72  70  93 S9        29.92F
CINC-LUNKEN    LGT RAIN  73  71  93 S5        29.92F
HAMILTON       PTSUNNY   74  70  87 S7        29.92S
DAYTON         NOT AVBL
WRIGHT-PAT AFB NOT AVBL
DAYTON GENERAL CLOUDY    75  68  78 S14       29.91S
WILMINGTON     CLOUDY    74  68  81 S14       29.92F
$$

OHZ036-037-039>041-045>050-054>059-063>069-073>076-082>088-230100-
  CENTRAL AND SOUTHEAST OHIO

CITY           SKY/WX    TMP DP  RH WIND       PRES   REMARKS
COLUMBUS       CLOUDY    81  68  64 SW14      29.91S
OSU AIRPORT    FAIR      79  68  69 SW13G26   29.90F
BOLTON FIELD   NOT AVBL
RICKENBACK AFB NOT AVBL
NEWARK         FAIR      81  67  62 SW14      29.91S
MARION         PTSUNNY   81  67  62 SW16G24   29.89S
LANCASTER      FAIR      78  68  71 S12       29.93F
ZANESVILLE     FAIR      80  69  69 S10       29.93S
NEW PHILLY     FAIR      81  69  67 VRB3      29.92F
$$



USA.gov is the U.S. government's official web portal to all federal, state and local government web resources and services.